Orbital Elements at Epoch 2459000.5 (2020-May-31.0) TDB
Reference: JPL 22 (heliocentric ecliptic J2000)
Element | Value | Uncertainty (1-sigma) | Units |
e | .2224791690250334 | 3.9741e-08 | |
a | 2.411128658231434 | 6.9247e-09 | au |
q | 1.874702757935661 | 9.4882e-08 | au |
i | 2.87387806738497 | 2.846e-06 | deg |
node | 70.3412854109701 | 9.4044e-05 | deg |
peri | 247.1935550184642 | 9.4448e-05 | deg |
M | 355.860387556396 | 8.2991e-06 | deg |
tp | 2459016.224838269050 (2020-Jun-15.72483827) | 3.1521e-05 | TDB |
period | 1367.505256586184 3.74 | 5.8912e-06 1.613e-08 | d yr |
n | .2632531014167344 | 1.1341e-09 | deg/d |
Q | 2.947554558527206 | 8.4653e-09 | au |
|
| | Orbit Determination Parameters
Additional Information
|